When you browse on this site, cookies collect data to enhance your experience and personalize the content and advertising you see.
Visit our Privacy Policy to learn more. By continuing to use the site, you agree to this use of cookies and data.
  • Em Portugal
  • Lista de países
  • Para 7 dias
  • Temperatura da água
  • Mapa do tempo
  • Widgets de tempo
  • user-avatar
    Iniciar Sessão

    Previsão horária em Selco

    Hoje, 4 Junho, Quinta-feira

    Tempo Temperatura Precipitação Vento Pressão Humidade
    00:00 +13°C° 1.3 mm 2 m/s 738 mmHg 99%
    01:00 +13°C° 1.3 mm 2 m/s 737 mmHg 99%
    02:00 +13°C° 0 mm 2 m/s 737 mmHg 99%
    03:00 +13°C° 2.1 mm 2 m/s 736 mmHg 99%
    04:00 +13°C° 2.1 mm 2 m/s 735 mmHg 99%
    05:00 +13°C° 2.1 mm 2 m/s 734 mmHg 99%
    06:00 +13°C° 0.8 mm 2 m/s 734 mmHg 99%
    07:00 +13°C° 0.8 mm 1 m/s 734 mmHg 99%
    08:00 +13°C° 0 mm 2 m/s 734 mmHg 98%
    09:00 +13°C° 0.1 mm 2 m/s 734 mmHg 97%
    10:00 +14°C° 0.1 mm 2 m/s 734 mmHg 95%
    11:00 +13°C° 0.1 mm 3 m/s 734 mmHg 93%
    12:00 +14°C° 0.4 mm 3 m/s 734 mmHg 89%
    13:00 +17°C° 0.4 mm 3 m/s 734 mmHg 86%
    14:00 +18°C° 0.4 mm 3 m/s 734 mmHg 82%
    15:00 +18°C° 0.4 mm 3 m/s 735 mmHg 83%
    16:00 +17°C° 0.4 mm 3 m/s 735 mmHg 83%
    17:00 +17°C° 0.4 mm 2 m/s 735 mmHg 84%
    18:00 +16°C° 0.3 mm 2 m/s 735 mmHg 86%
    19:00 +15°C° 0.3 mm 2 m/s 735 mmHg 89%
    20:00 +13°C° 0.3 mm 2 m/s 735 mmHg 92%
    21:00 +13°C° 0 mm 2 m/s 735 mmHg 93%
    22:00 +12°C° 0 mm 2 m/s 735 mmHg 94%
    23:00 +10°C° 0 mm 3 m/s 736 mmHg 95%

    Amanhã, 5 Junho, Sexta-feira

    Tempo Temperatura Precipitação Vento Pressão Humidade
    00:00 +10°C° 0 mm 3 m/s 736 mmHg 96%
    01:00 +9°C° 0 mm 3 m/s 736 mmHg 97%
    02:00 +9°C° 0 mm 2 m/s 737 mmHg 97%
    03:00 +9°C° 0 mm 3 m/s 737 mmHg 97%
    04:00 +9°C° 0 mm 3 m/s 737 mmHg 96%
    05:00 +10°C° 0 mm 3 m/s 737 mmHg 95%
    06:00 +11°C° 0.1 mm 3 m/s 737 mmHg 90%
    07:00 +13°C° 0.1 mm 3 m/s 738 mmHg 85%
    08:00 +16°C° 0.1 mm 3 m/s 738 mmHg 80%
    09:00 +15°C° 0.7 mm 4 m/s 738 mmHg 79%
    10:00 +17°C° 0.7 mm 4 m/s 738 mmHg 78%
    11:00 +17°C° 0.7 mm 4 m/s 738 mmHg 77%
    12:00 +17°C° 0.5 mm 4 m/s 738 mmHg 77%
    13:00 +17°C° 0.5 mm 4 m/s 738 mmHg 77%
    14:00 +17°C° 0.5 mm 4 m/s 738 mmHg 77%
    15:00 +17°C° 0.4 mm 3 m/s 738 mmHg 78%
    16:00 +16°C° 0.4 mm 3 m/s 738 mmHg 80%
    17:00 +16°C° 0.4 mm 3 m/s 738 mmHg 82%
    18:00 +15°C° 0.1 mm 2 m/s 738 mmHg 86%
    19:00 +14°C° 0.1 mm 2 m/s 738 mmHg 91%
    20:00 +13°C° 0.1 mm 2 m/s 739 mmHg 96%
    21:00 +12°C° 0 mm 2 m/s 739 mmHg 96%
    22:00 +12°C° 0 mm 2 m/s 739 mmHg 97%
    23:00 +11°C° 0 mm 1 m/s 739 mmHg 97%

    Depois de amanhã, 6 Junho, Sábado

    Tempo Temperatura Precipitação Vento Pressão Humidade
    00:00 +11°C° 0 mm 1 m/s 739 mmHg 97%
    01:00 +10°C° 0 mm 1 m/s 740 mmHg 97%
    02:00 +10°C° 0 mm 1 m/s 740 mmHg 97%
    03:00 +10°C° 0 mm 2 m/s 740 mmHg 97%
    04:00 +10°C° 0 mm 2 m/s 740 mmHg 96%
    05:00 +12°C° 0 mm 2 m/s 740 mmHg 96%
    06:00 +14°C° 0 mm 2 m/s 740 mmHg 91%
    07:00 +16°C° 0 mm 3 m/s 741 mmHg 87%
    08:00 +18°C° 0 mm 3 m/s 741 mmHg 82%
    09:00 +19°C° 0.1 mm 4 m/s 741 mmHg 79%
    10:00 +20°C° 0.1 mm 4 m/s 741 mmHg 77%
    11:00 +21°C° 0.1 mm 4 m/s 741 mmHg 74%
    12:00 +22°C° 0.1 mm 4 m/s 741 mmHg 74%
    13:00 +22°C° 0.1 mm 4 m/s 741 mmHg 74%
    14:00 +23°C° 0.1 mm 4 m/s 741 mmHg 74%
    15:00 +22°C° 0.6 mm 4 m/s 741 mmHg 78%
    16:00 +22°C° 0.6 mm 3 m/s 741 mmHg 83%
    17:00 +22°C° 0.6 mm 3 m/s 741 mmHg 87%
    18:00 +21°C° 0.4 mm 3 m/s 741 mmHg 89%
    19:00 +20°C° 0.4 mm 3 m/s 741 mmHg 91%
    20:00 +18°C° 0.4 mm 3 m/s 742 mmHg 93%
    21:00 +18°C° 0 mm 2 m/s 742 mmHg 95%
    22:00 +17°C° 0 mm 2 m/s 742 mmHg 96%
    23:00 +16°C° 0 mm 2 m/s 743 mmHg 97%

    7 Junho, Domingo

    Tempo Temperatura Precipitação Vento Pressão Humidade
    00:00 +16°C° 0 mm 2 m/s 743 mmHg 97%
    01:00 +15°C° 0 mm 2 m/s 744 mmHg 97%
    02:00 +15°C° 0 mm 1 m/s 744 mmHg 97%
    03:00 +16°C° 0 mm 1 m/s 745 mmHg 96%
    04:00 +16°C° 0 mm 1 m/s 745 mmHg 96%
    05:00 +16°C° 0 mm 1 m/s 745 mmHg 95%
    06:00 +19°C° 0 mm 1 m/s 746 mmHg 89%
    07:00 +21°C° 0 mm 1 m/s 746 mmHg 83%
    08:00 +21°C° 0 mm 0 m/s 747 mmHg 77%
    09:00 +22°C° 0 mm 0 m/s 747 mmHg 70%
    10:00 +26°C° 0 mm 1 m/s 747 mmHg 63%
    11:00 +27°C° 0 mm 1 m/s 747 mmHg 56%
    12:00 +27°C° 0 mm 1 m/s 747 mmHg 55%
    13:00 +27°C° 0 mm 1 m/s 747 mmHg 53%
    14:00 +28°C° 0 mm 1 m/s 747 mmHg 52%
    15:00 +27°C° 0 mm 2 m/s 747 mmHg 56%
    16:00 +27°C° 0 mm 2 m/s 747 mmHg 60%
    17:00 +26°C° 0 mm 2 m/s 747 mmHg 64%
    18:00 +24°C° 0.5 mm 2 m/s 747 mmHg 73%
    19:00 +23°C° 0.5 mm 2 m/s 747 mmHg 82%
    20:00 +20°C° 0.5 mm 2 m/s 747 mmHg 91%
    21:00 +20°C° 0 mm 1 m/s 747 mmHg 92%
    22:00 +20°C° 0 mm 1 m/s 747 mmHg 93%
    23:00 +19°C° 0 mm 1 m/s 747 mmHg 95%

    8 Junho, Segunda-feira

    Tempo Temperatura Precipitação Vento Pressão Humidade
    00:00 +19°C° 0 mm 1 m/s 747 mmHg 95%
    01:00 +17°C° 0 mm 2 m/s 747 mmHg 96%
    02:00 +17°C° 0 mm 2 m/s 747 mmHg 96%
    03:00 +17°C° 0 mm 2 m/s 747 mmHg 96%
    04:00 +18°C° 0 mm 2 m/s 747 mmHg 95%
    05:00 +18°C° 0 mm 2 m/s 747 mmHg 95%
    06:00 +20°C° 0 mm 2 m/s 747 mmHg 90%
    07:00 +21°C° 0 mm 2 m/s 748 mmHg 85%
    08:00 +24°C° 0 mm 2 m/s 748 mmHg 80%
    09:00 +25°C° 0.1 mm 2 m/s 748 mmHg 73%
    10:00 +26°C° 0.1 mm 2 m/s 748 mmHg 67%
    11:00 +27°C° 0.1 mm 3 m/s 748 mmHg 61%
    12:00 +28°C° 0.1 mm 3 m/s 748 mmHg 58%
    13:00 +28°C° 0.1 mm 3 m/s 747 mmHg 56%
    14:00 +29°C° 0.1 mm 3 m/s 747 mmHg 53%
    15:00 +28°C° 0 mm 2 m/s 747 mmHg 56%
    16:00 +28°C° 0 mm 2 m/s 747 mmHg 59%
    17:00 +28°C° 0 mm 2 m/s 747 mmHg 62%
    18:00 +26°C° 0 mm 1 m/s 747 mmHg 68%
    19:00 +24°C° 0 mm 1 m/s 747 mmHg 75%
    20:00 +22°C° 0 mm 1 m/s 747 mmHg 81%
    21:00 +21°C° 0 mm 1 m/s 747 mmHg 83%
    22:00 +20°C° 0 mm 1 m/s 747 mmHg 85%
    23:00 +19°C° 0 mm 1 m/s 747 mmHg 87%

    9 Junho, Terça-feira

    Tempo Temperatura Precipitação Vento Pressão Humidade
    00:00 +19°C° 0 mm 1 m/s 748 mmHg 88%
    01:00 +18°C° 0 mm 1 m/s 748 mmHg 89%
    02:00 +18°C° 0 mm 1 m/s 748 mmHg 90%
    03:00 +19°C° 0 mm 1 m/s 748 mmHg 89%
    04:00 +18°C° 0 mm 0 m/s 748 mmHg 88%
    05:00 +19°C° 0 mm 0 m/s 748 mmHg 86%
    06:00 +20°C° 0 mm 0 m/s 748 mmHg 81%
    07:00 +22°C° 0 mm 0 m/s 748 mmHg 75%
    08:00 +26°C° 0 mm 1 m/s 749 mmHg 69%
    09:00 +27°C° 0 mm 1 m/s 749 mmHg 64%
    10:00 +28°C° 0 mm 1 m/s 749 mmHg 59%
    11:00 +29°C° 0 mm 1 m/s 749 mmHg 54%
    12:00 +30°C° 0.1 mm 1 m/s 748 mmHg 54%
    13:00 +30°C° 0.1 mm 1 m/s 748 mmHg 53%
    14:00 +30°C° 0.1 mm 1 m/s 748 mmHg 53%
    15:00 +29°C° 0.3 mm 1 m/s 748 mmHg 58%
    16:00 +29°C° 0.3 mm 1 m/s 748 mmHg 63%
    17:00 +28°C° 0.3 mm 1 m/s 748 mmHg 68%
    18:00 +26°C° 0 mm 1 m/s 748 mmHg 73%
    19:00 +24°C° 0 mm 1 m/s 748 mmHg 79%
    20:00 +21°C° 0 mm 0 m/s 747 mmHg 84%
    21:00 +20°C° 0 mm 0 m/s 748 mmHg 86%
    22:00 +19°C° 0 mm 0 m/s 748 mmHg 87%
    23:00 +18°C° 0 mm 0 m/s 748 mmHg 88%
    Mostrar mais